| time (UTC) | temp C | wind direction | speed KPH | gust KPH | rain 1hr cm | rain 24hr cm | rain mn cm | humidity % | barometer mb |
| 20260831032505 | 18 | 0 | 0.0 | 0.0 | 0.00 | 0.00 | 0.00 | 63 | 1017.1 |
| 20260831032006 | 18 | 0 | 0.0 | 0.0 | 0.00 | 0.00 | 0.00 | 62 | 1017.1 |
| 20260831031505 | 18 | 0 | 0.0 | 0.0 | 0.00 | 0.00 | 0.00 | 62 | 1017.1 |
| 20260831031006 | 18 | 0 | 0.0 | 0.0 | 0.00 | 0.00 | 0.00 | 62 | 1017.1 |
| 20260831030505 | 18 | 0 | 0.0 | 0.0 | 0.00 | 0.00 | 0.00 | 61 | 1017.1 |
| 20260831030006 | 18 | 0 | 0.0 | 0.0 | 0.00 | 0.00 | 0.00 | 61 | 1017.0 |
| 20260831025505 | 18 | 0 | 0.0 | 0.0 | 0.00 | 0.00 | 0.00 | 61 | 1017.0 |
| 20260831025006 | 19 | 0 | 0.0 | 0.0 | 0.00 | 0.00 | 0.00 | 60 | 1017.1 |
| 20260831023505 | 19 | 0 | 0.0 | 0.0 | 0.00 | 0.00 | 0.00 | 58 | 1017.1 |
| 20260831023005 | 19 | 0 | 0.0 | 0.0 | 0.00 | 0.00 | 0.00 | 57 | 1017.2 |
| 20260831022505 | 20 | 0 | 0.0 | 0.0 | 0.00 | 0.00 | 0.00 | 56 | 1017.3 |
| 20260831021505 | 20 | 0 | 0.0 | 0.0 | 0.00 | 0.00 | 0.00 | 55 | 1017.3 |
| 20260831021006 | 20 | 0 | 0.0 | 0.0 | 0.00 | 0.00 | 0.00 | 54 | 1017.3 |
| 20260831020006 | 20 | 0 | 0.0 | 0.0 | 0.00 | 0.00 | 0.00 | 54 | 1017.4 |
| 20260831015505 | 20 | 0 | 0.0 | 0.0 | 0.00 | 0.00 | 0.00 | 53 | 1017.4 |
| 20260831014505 | 20 | 0 | 0.0 | 0.0 | 0.00 | 0.00 | 0.00 | 54 | 1017.4 |
| 20260831014006 | 20 | 0 | 0.0 | 0.0 | 0.00 | 0.00 | 0.00 | 54 | 1017.5 |
| 20260831013504 | 20 | 0 | 0.0 | 0.0 | 0.00 | 0.00 | 0.00 | 54 | 1017.5 |
| 20260831013006 | 20 | 0 | 0.0 | 0.0 | 0.00 | 0.00 | 0.00 | 54 | 1017.5 |
| 20260831012006 | 20 | 0 | 0.0 | 0.0 | 0.00 | 0.00 | 0.00 | 54 | 1017.5 |
| 20260831011506 | 20 | 0 | 0.0 | 0.0 | 0.00 | 0.00 | 0.00 | 56 | 1017.6 |
| 20260831011006 | 21 | 0 | 0.0 | 0.0 | 0.00 | 0.00 | 0.00 | 55 | 1017.6 |
| 20260831010505 | 21 | 0 | 0.0 | 0.0 | 0.00 | 0.00 | 0.00 | 55 | 1017.6 |
| 20260831010006 | 21 | 0 | 0.0 | 0.0 | 0.00 | 0.00 | 0.00 | 55 | 1017.7 |
| 20260831005006 | 21 | 0 | 0.0 | 0.0 | 0.00 | 0.00 | 0.00 | 56 | 1017.7 |
| 20260831004505 | 21 | 0 | 0.0 | 0.0 | 0.00 | 0.00 | 0.00 | 56 | 1017.7 |
| 20260831004005 | 21 | 0 | 0.0 | 0.0 | 0.00 | 0.00 | 0.00 | 54 | 1017.7 |
| 20260831003505 | 21 | 0 | 0.0 | 0.0 | 0.00 | 0.00 | 0.00 | 55 | 1017.7 |
| 20260831003005 | 21 | 0 | 0.0 | 0.0 | 0.00 | 0.00 | 0.00 | 54 | 1017.8 |
| 20260831002505 | 21 | 0 | 0.0 | 0.0 | 0.00 | 0.00 | 0.00 | 53 | 1017.9 |
| 20260831002005 | 21 | 0 | 0.0 | 0.0 | 0.00 | 0.00 | 0.00 | 52 | 1017.9 |
| 20260831001505 | 22 | 0 | 0.0 | 0.0 | 0.00 | 0.00 | 0.00 | 51 | 1017.9 |
| 20260831001006 | 22 | 0 | 0.0 | 0.0 | 0.00 | 0.00 | 0.00 | 50 | 1018.0 |
| 20260831000504 | 22 | 0 | 0.0 | 0.0 | 0.00 | 0.00 | 0.00 | 52 | 1018.0 |
| 20260831000005 | 22 | 0 | 0.0 | 0.0 | 0.00 | 0.00 | 0.00 | 52 | 1018.1 |
| 20260830235505 | 22 | 0 | 0.0 | 0.0 | 0.00 | 0.00 | 0.00 | 51 | 1018.1 |
| 20260830235006 | 22 | 0 | 0.0 | 0.0 | 0.00 | 0.00 | 0.00 | 52 | 1018.2 |
| 20260830234505 | 22 | 0 | 0.0 | 0.0 | 0.00 | 0.00 | 0.00 | 50 | 1018.2 |
| 20260830233505 | 22 | 0 | 0.0 | 0.0 | 0.00 | 0.00 | 0.00 | 55 | 1018.2 |
| 20260830232005 | 22 | 0 | 0.0 | 0.0 | 0.00 | 0.00 | 0.00 | 53 | 1018.3 |
| 20260830231504 | 22 | 0 | 0.0 | 0.0 | 0.00 | 0.00 | 0.00 | 56 | 1018.4 |
| 20260830231006 | 22 | 0 | 0.0 | 0.0 | 0.00 | 0.00 | 0.00 | 55 | 1018.3 |
| 20260830230505 | 22 | 0 | 0.0 | 0.0 | 0.00 | 0.00 | 0.00 | 54 | 1018.4 |
| 20260830225505 | 22 | 0 | 0.0 | 0.0 | 0.00 | 0.00 | 0.00 | 55 | 1018.5 |
| 20260830225006 | 22 | 0 | 0.0 | 0.0 | 0.00 | 0.00 | 0.00 | 53 | 1018.6 |
| 20260830224504 | 22 | 0 | 0.0 | 0.0 | 0.00 | 0.00 | 0.00 | 55 | 1018.6 |
| 20260830223005 | 22 | 0 | 0.0 | 0.0 | 0.00 | 0.00 | 0.00 | 55 | 1018.7 |
| 20260830222505 | 22 | 0 | 0.0 | 0.0 | 0.00 | 0.00 | 0.00 | 55 | 1018.8 |
| 20260830221505 | 21 | 0 | 0.0 | 0.0 | 0.00 | 0.00 | 0.00 | 57 | 1018.8 |
| 20260830221006 | 20 | 0 | 0.0 | 0.0 | 0.00 | 0.00 | 0.00 | 57 | 1018.8 |
| 20260830215006 | 21 | 0 | 0.0 | 0.0 | 0.00 | 0.00 | 0.00 | 54 | 1019.0 |
| 20260830214504 | 22 | 0 | 0.0 | 0.0 | 0.00 | 0.00 | 0.00 | 53 | 1019.1 |
| 20260830214006 | 22 | 0 | 0.0 | 0.0 | 0.00 | 0.00 | 0.00 | 53 | 1019.2 |
| 20260830213505 | 22 | 0 | 0.0 | 0.0 | 0.00 | 0.00 | 0.00 | 53 | 1019.2 |
| 20260830213006 | 22 | 0 | 0.0 | 0.0 | 0.00 | 0.00 | 0.00 | 53 | 1019.3 |
| 20260830212006 | 22 | 0 | 0.0 | 0.0 | 0.00 | 0.00 | 0.00 | 55 | 1019.4 |
| 20260830211504 | 22 | 0 | 0.0 | 0.0 | 0.00 | 0.00 | 0.00 | 52 | 1019.4 |
| 20260830211005 | 22 | 0 | 0.0 | 0.0 | 0.00 | 0.00 | 0.00 | 55 | 1019.4 |
| 20260830210504 | 22 | 0 | 0.0 | 0.0 | 0.00 | 0.00 | 0.00 | 56 | 1019.5 |
| 20260830210005 | 21 | 0 | 0.0 | 0.0 | 0.00 | 0.00 | 0.00 | 55 | 1019.5 |
| 20260830205505 | 21 | 0 | 0.0 | 0.0 | 0.00 | 0.00 | 0.00 | 57 | 1019.6 |
| 20260830205005 | 21 | 0 | 0.0 | 0.0 | 0.00 | 0.00 | 0.00 | 60 | 1019.5 |
| 20260830204006 | 20 | 0 | 0.0 | 0.0 | 0.00 | 0.00 | 0.00 | 63 | 1019.7 |
| 20260830203505 | 20 | 0 | 0.0 | 0.0 | 0.00 | 0.00 | 0.00 | 63 | 1019.7 |
| 20260830203006 | 19 | 0 | 0.0 | 0.0 | 0.00 | 0.00 | 0.00 | 62 | 1019.8 |
| 20260830202504 | 19 | 0 | 0.0 | 0.0 | 0.00 | 0.00 | 0.00 | 61 | 1019.7 |
| 20260830202005 | 19 | 0 | 0.0 | 0.0 | 0.00 | 0.00 | 0.00 | 62 | 1019.7 |
| 20260830201505 | 18 | 247 | 0.0 | 1.6 | 0.00 | 0.00 | 0.00 | 65 | 1019.8 |
| 20260830201005 | 18 | 247 | 0.0 | 1.6 | 0.00 | 0.00 | 0.00 | 64 | 1019.8 |
| 20260830200504 | 18 | 0 | 0.0 | 0.0 | 0.00 | 0.00 | 0.00 | 65 | 1019.8 |
| 20260830200005 | 18 | 0 | 0.0 | 0.0 | 0.00 | 0.00 | 0.00 | 63 | 1020.0 |
| 20260830195005 | 18 | 247 | 0.0 | 11.3 | 0.00 | 0.00 | 0.00 | 62 | 1020.0 |
| 20260830194504 | 19 | 247 | 0.0 | 6.4 | 0.00 | 0.00 | 0.00 | 63 | 1019.9 |
| 20260830193505 | 18 | 246 | 0.0 | 6.4 | 0.00 | 0.00 | 0.00 | 64 | 1020.0 |
| 20260830193005 | 18 | 246 | 0.0 | 4.8 | 0.00 | 0.00 | 0.00 | 64 | 1020.0 |
| 20260830191504 | 17 | 247 | 0.0 | 1.6 | 0.00 | 0.00 | 0.00 | 69 | 1020.1 |
| 20260830191005 | 17 | 246 | 0.0 | 1.6 | 0.00 | 0.00 | 0.00 | 67 | 1020.1 |
| 20260830190504 | 17 | 247 | 0.0 | 8.0 | 0.00 | 0.00 | 0.00 | 67 | 1020.1 |
| 20260830190005 | 17 | 247 | 0.0 | 8.0 | 0.00 | 0.00 | 0.00 | 68 | 1020.1 |
| 20260830185504 | 17 | 0 | 0.0 | 0.0 | 0.00 | 0.00 | 0.00 | 71 | 1020.2 |
| 20260830184504 | 17 | 0 | 0.0 | 0.0 | 0.00 | 0.00 | 0.00 | 71 | 1020.2 |
| 20260830184005 | 17 | 0 | 0.0 | 0.0 | 0.00 | 0.03 | 0.00 | 69 | 1020.2 |
| 20260830183505 | 17 | 0 | 0.0 | 0.0 | 0.00 | 0.03 | 0.00 | 70 | 1020.3 |
| 20260830182504 | 16 | 0 | 0.0 | 0.0 | 0.00 | 0.03 | 0.00 | 70 | 1020.3 |
| 20260830182005 | 17 | 247 | 0.0 | 3.2 | 0.00 | 0.03 | 0.00 | 69 | 1020.3 |
| 20260830181005 | 17 | 0 | 0.0 | 0.0 | 0.00 | 0.03 | 0.00 | 68 | 1020.4 |
| 20260830180504 | 17 | 247 | 0.0 | 3.2 | 0.00 | 0.03 | 0.00 | 70 | 1020.3 |
| 20260830175005 | 16 | 0 | 0.0 | 0.0 | 0.00 | 0.03 | 0.00 | 72 | 1020.4 |
| 20260830174504 | 16 | 0 | 0.0 | 0.0 | 0.00 | 0.03 | 0.00 | 71 | 1020.3 |
| 20260830174005 | 16 | 0 | 0.0 | 0.0 | 0.00 | 0.03 | 0.00 | 72 | 1020.3 |
| 20260830173005 | 16 | 0 | 0.0 | 0.0 | 0.00 | 0.03 | 0.00 | 72 | 1020.3 |
| 20260830172504 | 16 | 0 | 0.0 | 0.0 | 0.00 | 0.03 | 0.00 | 72 | 1020.3 |
| 20260830172006 | 16 | 247 | 0.0 | 6.4 | 0.00 | 0.03 | 0.00 | 72 | 1020.4 |
| 20260830171504 | 16 | 247 | 0.0 | 6.4 | 0.00 | 0.03 | 0.00 | 73 | 1020.3 |
| 20260830171005 | 16 | 0 | 0.0 | 0.0 | 0.00 | 0.03 | 0.00 | 72 | 1020.2 |
| 20260830170504 | 16 | 0 | 0.0 | 0.0 | 0.00 | 0.03 | 0.00 | 72 | 1020.2 |
| 20260830170005 | 16 | 0 | 0.0 | 0.0 | 0.00 | 0.03 | 0.00 | 73 | 1020.1 |
| 20260830165504 | 16 | 0 | 0.0 | 0.0 | 0.00 | 0.03 | 0.00 | 73 | 1020.3 |
| 20260830165005 | 15 | 0 | 0.0 | 0.0 | 0.00 | 0.03 | 0.00 | 74 | 1020.2 |
| 20260830164504 | 15 | 246 | 0.0 | 3.2 | 0.00 | 0.03 | 0.00 | 75 | 1020.2 |
| 20260830164004 | 15 | 246 | 0.0 | 3.2 | 0.00 | 0.03 | 0.00 | 76 | 1020.2 |
| 20260830163505 | 15 | 246 | 0.0 | 3.2 | 0.00 | 0.03 | 0.00 | 77 | 1020.2 |
| 20260830163006 | 15 | 247 | 0.0 | 3.2 | 0.00 | 0.03 | 0.00 | 77 | 1020.3 |
| 20260830162504 | 15 | 247 | 0.0 | 3.2 | 0.00 | 0.03 | 0.00 | 76 | 1020.3 |
| 20260830162005 | 15 | 247 | 0.0 | 3.2 | 0.00 | 0.08 | 0.00 | 76 | 1020.3 |
| 20260830160504 | 14 | 0 | 0.0 | 0.0 | 0.00 | 0.10 | 0.00 | 77 | 1020.3 |
| 20260830160005 | 14 | 0 | 0.0 | 0.0 | 0.00 | 0.13 | 0.00 | 77 | 1020.4 |
| 20260830155504 | 14 | 0 | 0.0 | 0.0 | 0.00 | 0.13 | 0.00 | 77 | 1020.4 |
| 20260830154504 | 14 | 0 | 0.0 | 0.0 | 0.00 | 0.15 | 0.00 | 78 | 1020.3 |
| 20260830154006 | 13 | 0 | 0.0 | 0.0 | 0.00 | 0.15 | 0.00 | 80 | 1020.3 |
| 20260830153504 | 13 | 0 | 0.0 | 0.0 | 0.00 | 0.15 | 0.00 | 80 | 1020.3 |
| 20260830153006 | 13 | 0 | 0.0 | 0.0 | 0.00 | 0.15 | 0.00 | 81 | 1020.3 |
| 20260830152504 | 13 | 0 | 0.0 | 0.0 | 0.00 | 0.15 | 0.00 | 82 | 1020.3 |
| 20260830152005 | 13 | 0 | 0.0 | 0.0 | 0.00 | 0.15 | 0.00 | 83 | 1020.3 |
| 20260830151504 | 13 | 0 | 0.0 | 0.0 | 0.00 | 0.15 | 0.00 | 84 | 1020.2 |
| 20260830151005 | 13 | 0 | 0.0 | 0.0 | 0.00 | 0.15 | 0.00 | 84 | 1020.2 |
| 20260830150504 | 13 | 0 | 0.0 | 0.0 | 0.00 | 0.15 | 0.00 | 85 | 1020.2 |
| 20260830145505 | 13 | 0 | 0.0 | 0.0 | 0.00 | 0.15 | 0.00 | 85 | 1020.3 |
| 20260830145005 | 12 | 0 | 0.0 | 0.0 | 0.00 | 0.18 | 0.00 | 86 | 1020.3 |
| 20260830144505 | 12 | 0 | 0.0 | 0.0 | 0.00 | 0.28 | 0.00 | 85 | 1020.3 |
| 20260830144005 | 12 | 0 | 0.0 | 0.0 | 0.00 | 0.43 | 0.00 | 85 | 1020.2 |
| 20260830143504 | 12 | 0 | 0.0 | 0.0 | 0.00 | 0.61 | 0.00 | 85 | 1020.2 |
| 20260830142505 | 12 | 0 | 0.0 | 0.0 | 0.00 | 0.89 | 0.00 | 85 | 1019.9 |
| 20260830142004 | 12 | 0 | 0.0 | 0.0 | 0.00 | 0.91 | 0.00 | 86 | 1019.9 |
| 20260830141504 | 12 | 0 | 0.0 | 0.0 | 0.00 | 0.94 | 0.00 | 86 | 1019.8 |
| 20260830141005 | 12 | 0 | 0.0 | 0.0 | 0.00 | 0.97 | 0.00 | 85 | 1019.8 |
| 20260830140504 | 12 | 0 | 0.0 | 0.0 | 0.00 | 1.04 | 0.00 | 85 | 1019.8 |
| 20260830140006 | 12 | 0 | 0.0 | 0.0 | 0.00 | 1.07 | 0.00 | 85 | 1019.8 |
| 20260830135505 | 12 | 0 | 0.0 | 0.0 | 0.00 | 1.09 | 0.00 | 85 | 1019.7 |
| 20260830135005 | 12 | 0 | 0.0 | 0.0 | 0.00 | 1.09 | 0.00 | 84 | 1019.8 |
| 20260830134504 | 12 | 0 | 0.0 | 0.0 | 0.00 | 1.12 | 0.00 | 84 | 1019.8 |
| 20260830134005 | 12 | 0 | 0.0 | 0.0 | 0.00 | 1.14 | 0.00 | 84 | 1019.8 |
| 20260830133006 | 12 | 0 | 0.0 | 0.0 | 0.00 | 1.14 | 0.00 | 84 | 1019.7 |
| 20260830132504 | 12 | 0 | 0.0 | 0.0 | 0.00 | 1.14 | 0.00 | 84 | 1019.7 |
| 20260830132004 | 12 | 0 | 0.0 | 0.0 | 0.00 | 1.14 | 0.00 | 84 | 1019.8 |
| 20260830131505 | 12 | 0 | 0.0 | 0.0 | 0.00 | 1.14 | 0.00 | 84 | 1019.8 |
| 20260830131005 | 12 | 0 | 0.0 | 0.0 | 0.00 | 1.14 | 0.00 | 84 | 1019.8 |
| 20260830130504 | 12 | 0 | 0.0 | 0.0 | 0.00 | 1.14 | 0.00 | 84 | 1019.7 |
| 20260830130005 | 12 | 0 | 0.0 | 0.0 | 0.00 | 1.14 | 0.00 | 84 | 1019.7 |
| 20260830125504 | 12 | 0 | 0.0 | 0.0 | 0.00 | 1.14 | 0.00 | 84 | 1019.7 |
| 20260830125005 | 12 | 0 | 0.0 | 0.0 | 0.00 | 1.14 | 0.00 | 83 | 1019.7 |
| 20260830124504 | 12 | 0 | 0.0 | 0.0 | 0.00 | 1.14 | 0.00 | 83 | 1019.7 |
| 20260830124005 | 12 | 0 | 0.0 | 0.0 | 0.00 | 1.14 | 0.00 | 84 | 1019.8 |
| 20260830123504 | 12 | 0 | 0.0 | 0.0 | 0.00 | 1.14 | 0.00 | 84 | 1019.8 |
| 20260830123006 | 12 | 0 | 0.0 | 0.0 | 0.00 | 1.14 | 0.00 | 84 | 1019.8 |
| 20260830122505 | 12 | 0 | 0.0 | 0.0 | 0.00 | 1.14 | 0.00 | 84 | 1019.8 |
| 20260830122005 | 12 | 0 | 0.0 | 0.0 | 0.00 | 1.14 | 0.00 | 84 | 1019.8 |
| 20260830121504 | 12 | 0 | 0.0 | 0.0 | 0.00 | 1.14 | 0.00 | 84 | 1019.8 |
| 20260830121004 | 12 | 0 | 0.0 | 0.0 | 0.00 | 1.14 | 0.00 | 84 | 1019.9 |
| 20260830120504 | 12 | 0 | 0.0 | 0.0 | 0.00 | 1.14 | 0.00 | 84 | 1019.8 |
| 20260830115504 | 12 | 0 | 0.0 | 0.0 | 0.00 | 1.14 | 0.00 | 84 | 1019.8 |
| 20260830115006 | 12 | 0 | 0.0 | 0.0 | 0.00 | 1.14 | 0.00 | 84 | 1019.9 |
| 20260830114505 | 12 | 0 | 0.0 | 0.0 | 0.00 | 1.14 | 0.00 | 84 | 1019.7 |
| 20260830114005 | 12 | 0 | 0.0 | 0.0 | 0.00 | 1.14 | 0.00 | 84 | 1019.7 |
| 20260830113504 | 12 | 0 | 0.0 | 0.0 | 0.00 | 1.14 | 0.00 | 84 | 1019.7 |
| 20260830112504 | 12 | 0 | 0.0 | 0.0 | 0.00 | 1.14 | 0.00 | 85 | 1019.6 |
| 20260830112006 | 12 | 0 | 0.0 | 0.0 | 0.00 | 1.14 | 0.00 | 85 | 1019.6 |
| 20260830111505 | 12 | 0 | 0.0 | 0.0 | 0.00 | 1.14 | 0.00 | 85 | 1019.6 |
| 20260830111007 | 12 | 0 | 0.0 | 0.0 | 0.00 | 1.14 | 0.00 | 85 | 1019.6 |
| 20260830110005 | 12 | 0 | 0.0 | 0.0 | 0.00 | 1.14 | 0.00 | 85 | 1019.7 |
| 20260830105004 | 12 | 0 | 0.0 | 0.0 | 0.00 | 1.14 | 0.00 | 85 | 1019.7 |
| 20260830104504 | 12 | 0 | 0.0 | 0.0 | 0.00 | 1.14 | 0.00 | 85 | 1019.7 |
| 20260830103504 | 12 | 0 | 0.0 | 0.0 | 0.00 | 1.14 | 0.00 | 85 | 1019.7 |
| 20260830103005 | 12 | 0 | 0.0 | 0.0 | 0.00 | 1.14 | 0.00 | 85 | 1019.7 |
| 20260830102504 | 12 | 0 | 0.0 | 0.0 | 0.00 | 1.14 | 0.00 | 85 | 1019.7 |
| 20260830101503 | 12 | 0 | 0.0 | 0.0 | 0.00 | 1.14 | 0.00 | 85 | 1019.7 |
| 20260830101004 | 12 | 0 | 0.0 | 0.0 | 0.00 | 1.14 | 0.00 | 85 | 1019.6 |
| 20260830100504 | 12 | 0 | 0.0 | 0.0 | 0.00 | 1.14 | 0.00 | 85 | 1019.5 |
| 20260830095504 | 12 | 0 | 0.0 | 0.0 | 0.00 | 1.14 | 0.00 | 86 | 1019.4 |
| 20260830093503 | 12 | 0 | 0.0 | 0.0 | 0.00 | 1.14 | 0.00 | 86 | 1019.4 |
| 20260830093005 | 12 | 0 | 0.0 | 0.0 | 0.00 | 1.14 | 0.00 | 86 | 1019.4 |
| 20260830092004 | 12 | 0 | 0.0 | 0.0 | 0.00 | 1.14 | 0.00 | 86 | 1019.5 |
| 20260830091504 | 12 | 0 | 0.0 | 0.0 | 0.00 | 1.14 | 0.00 | 86 | 1019.6 |
| 20260830091005 | 12 | 0 | 0.0 | 0.0 | 0.00 | 1.14 | 0.00 | 86 | 1019.5 |
| 20260830090504 | 12 | 0 | 0.0 | 0.0 | 0.00 | 1.14 | 0.00 | 86 | 1019.6 |
| 20260830090005 | 12 | 0 | 0.0 | 0.0 | 0.00 | 1.14 | 0.00 | 86 | 1019.6 |
| 20260830085503 | 12 | 0 | 0.0 | 0.0 | 0.00 | 1.14 | 0.00 | 86 | 1019.6 |
| 20260830085004 | 12 | 0 | 0.0 | 0.0 | 0.00 | 1.14 | 0.00 | 86 | 1019.6 |
| 20260830084504 | 12 | 0 | 0.0 | 0.0 | 0.00 | 1.14 | 0.00 | 85 | 1019.6 |
| 20260830084005 | 12 | 0 | 0.0 | 0.0 | 0.00 | 1.14 | 0.00 | 85 | 1019.5 |
| 20260830083504 | 12 | 0 | 0.0 | 0.0 | 0.00 | 1.14 | 0.00 | 84 | 1019.5 |
| 20260830083005 | 12 | 0 | 0.0 | 0.0 | 0.00 | 1.14 | 0.00 | 84 | 1019.5 |
| 20260830082504 | 12 | 0 | 0.0 | 0.0 | 0.00 | 1.14 | 0.00 | 84 | 1019.5 |
| 20260830082004 | 12 | 0 | 0.0 | 0.0 | 0.00 | 1.14 | 0.00 | 84 | 1019.5 |
| 20260830081504 | 12 | 0 | 0.0 | 0.0 | 0.00 | 1.14 | 0.00 | 83 | 1019.5 |
| 20260830080503 | 12 | 0 | 0.0 | 0.0 | 0.00 | 1.14 | 0.00 | 83 | 1019.4 |
| 20260830080004 | 12 | 0 | 0.0 | 0.0 | 0.00 | 1.14 | 0.00 | 82 | 1019.5 |
| 20260830075004 | 12 | 0 | 0.0 | 0.0 | 0.00 | 1.14 | 0.00 | 82 | 1019.5 |
| 20260830074504 | 12 | 0 | 0.0 | 0.0 | 0.00 | 1.14 | 0.00 | 82 | 1019.5 |
| 20260830074004 | 12 | 0 | 0.0 | 0.0 | 0.00 | 1.14 | 0.00 | 81 | 1019.4 |
| 20260830073503 | 13 | 0 | 0.0 | 0.0 | 0.00 | 1.14 | 0.00 | 81 | 1019.4 |
| 20260830073004 | 13 | 0 | 0.0 | 0.0 | 0.00 | 1.14 | 0.00 | 81 | 1019.4 |
| 20260830072503 | 13 | 0 | 0.0 | 0.0 | 0.00 | 1.14 | 0.00 | 80 | 1019.3 |
| 20260830072005 | 13 | 0 | 0.0 | 0.0 | 0.00 | 1.14 | 0.00 | 79 | 1019.4 |
| 20260830071503 | 13 | 0 | 0.0 | 0.0 | 0.00 | 1.14 | 0.00 | 79 | 1019.4 |
| 20260830071005 | 13 | 0 | 0.0 | 0.0 | 0.00 | 1.14 | 0.00 | 79 | 1019.3 |
| 20260830070503 | 13 | 0 | 0.0 | 0.0 | 0.00 | 1.14 | 0.00 | 78 | 1019.4 |
| 20260830065503 | 13 | 0 | 0.0 | 0.0 | 0.00 | 1.14 | 1.14 | 77 | 1019.3 |
| 20260830064503 | 14 | 0 | 0.0 | 0.0 | 0.00 | 1.14 | 1.14 | 76 | 1019.2 |
| 20260830063505 | 14 | 0 | 0.0 | 0.0 | 0.00 | 1.14 | 1.14 | 76 | 1019.2 |
| 20260830063006 | 14 | 0 | 0.0 | 0.0 | 0.00 | 1.14 | 1.14 | 76 | 1019.2 |
| 20260830062505 | 14 | 0 | 0.0 | 0.0 | 0.00 | 1.14 | 1.14 | 75 | 1019.1 |
| 20260830062005 | 15 | 246 | 0.0 | 1.6 | 0.00 | 1.14 | 1.14 | 75 | 1019.1 |
| 20260830061505 | 15 | 247 | 0.0 | 8.0 | 0.00 | 1.14 | 1.14 | 75 | 1019.1 |
| 20260830061006 | 15 | 247 | 0.0 | 8.0 | 0.00 | 1.14 | 1.14 | 75 | 1019.1 |
| 20260830060506 | 15 | 247 | 0.0 | 3.2 | 0.00 | 1.14 | 1.14 | 74 | 1019.1 |
| 20260830060006 | 15 | 0 | 0.0 | 0.0 | 0.00 | 1.14 | 1.14 | 74 | 1019.1 |
| 20260830055506 | 15 | 0 | 0.0 | 0.0 | 0.00 | 1.14 | 1.14 | 74 | 1019.0 |
| 20260830055006 | 15 | 0 | 0.0 | 0.0 | 0.00 | 1.14 | 1.14 | 73 | 1019.0 |
| 20260830054505 | 15 | 0 | 0.0 | 0.0 | 0.00 | 1.14 | 1.14 | 72 | 1019.1 |
| 20260830054006 | 15 | 0 | 0.0 | 0.0 | 0.00 | 1.14 | 1.14 | 72 | 1019.0 |
| 20260830053505 | 15 | 0 | 0.0 | 0.0 | 0.00 | 1.14 | 1.14 | 72 | 1019.0 |
| 20260830053005 | 15 | 0 | 0.0 | 0.0 | 0.00 | 1.14 | 1.14 | 71 | 1019.0 |
| 20260830052506 | 15 | 0 | 0.0 | 0.0 | 0.00 | 1.14 | 1.14 | 71 | 1019.0 |
| 20260830052005 | 16 | 247 | 0.0 | 1.6 | 0.00 | 1.14 | 1.14 | 70 | 1019.0 |
| 20260830051505 | 16 | 247 | 0.0 | 1.6 | 0.00 | 1.14 | 1.14 | 70 | 1018.9 |
| 20260830051005 | 16 | 247 | 0.0 | 1.6 | 0.00 | 1.14 | 1.14 | 70 | 1019.0 |
| 20260830050505 | 16 | 247 | 0.0 | 11.3 | 0.00 | 1.14 | 1.14 | 70 | 1018.9 |
| 20260830050005 | 16 | 247 | 0.0 | 11.3 | 0.00 | 1.14 | 1.14 | 70 | 1019.0 |
| 20260830045506 | 16 | 247 | 0.0 | 8.0 | 0.00 | 1.14 | 1.14 | 69 | 1018.9 |
| 20260830044505 | 16 | 247 | 0.0 | 6.4 | 0.00 | 1.14 | 1.14 | 69 | 1018.9 |
| 20260830043505 | 16 | 247 | 0.0 | 4.8 | 0.00 | 1.14 | 1.14 | 67 | 1018.9 |
| 20260830042007 | 16 | 247 | 0.0 | 3.2 | 0.00 | 1.14 | 1.14 | 67 | 1018.7 |
| 20260830041504 | 16 | 247 | 0.0 | 4.8 | 0.00 | 1.14 | 1.14 | 67 | 1018.6 |
| 20260830041005 | 16 | 247 | 0.0 | 4.8 | 0.00 | 1.14 | 1.14 | 66 | 1018.5 |
| 20260830040505 | 16 | 247 | 0.0 | 4.8 | 0.00 | 1.14 | 1.14 | 66 | 1018.4 |
| 20260830040006 | 16 | 247 | 0.0 | 4.8 | 0.00 | 1.14 | 1.14 | 65 | 1018.4 |
| 20260830035505 | 17 | 247 | 0.0 | 6.4 | 0.00 | 1.14 | 1.14 | 65 | 1018.2 |
| 20260830035006 | 17 | 247 | 0.0 | 6.4 | 0.00 | 1.14 | 1.14 | 64 | 1018.1 |
| 20260830034006 | 17 | 247 | 0.0 | 4.8 | 0.00 | 1.14 | 1.14 | 64 | 1018.0 |
| 20260830033505 | 17 | 247 | 0.0 | 4.8 | 0.00 | 1.14 | 1.14 | 64 | 1017.9 |
| 20260830033005 | 17 | 247 | 0.0 | 6.4 | 0.00 | 1.14 | 1.14 | 64 | 1017.9 |